Temperature
11 11 11 11 10 9 9 9 8 7 6 6 5 4 4 3 3 2 1 0 -0 -1 -2 -2 -3 -3 -3 -3 -3 -3 -3 -4 -5 -4 -4 -3 -3 -3 -4 -5 -5 -6 -6
11 11 10 10 10 10 9 9 8 8 7 7 6 5 4 3 3 2 1 0 -1 -1 -2 -3 -3 -4 -4 -4 -4 -4 -4 -4 -4 -5 -4 -4 -4 -4 -5 -5 -6 -6 -6
10 10 10 9 9 9 9 9 8 8 7 7 6 5 5 4 3 2 1 0 -0 -1 -2 -3 -3 -4 -5 -5 -5 -5 -5 -4 -4 -6 -6 -5 -5 -5 -6 -6 -6 -7 -7
9 9 9 8 8 8 8 8 7 7 7 6 6 5 5 4 3 2 1 -0 -1 -2 -2 -3 -4 -5 -5 -5 -5 -5 -5 -5 -5 -6 -7 -7 -6 -5 -7 -7 -7 -7 -7
8 8 8 7 7 7 7 6 6 6 6 6 5 5 4 3 3 2 1 -0 -1 -2 -3 -4 -4 -5 -6 -6 -6 -6 -5 -5 -6 -6 -7 -7 -7 -6 -7 -7 -7 -7 -7
7 7 7 6 6 6 6 6 6 6 5 5 4 4 3 3 3 1 -0 -1 -2 -3 -3 -4 -5 -6 -6 -6 -6 -6 -6 -6 -6 -6 -7 -7 -6 -6 -7 -7 -8 -8 -8
6 6 6 5 5 5 5 5 5 5 4 4 4 3 3 3 2 0 -1 -3 -3 -4 -4 -5 -6 -6 -7 -7 -6 -6 -6 -6 -6 -6 -6 -6 -6 -6 -7 -7 -7 -8 -8
5 5 5 4 4 4 4 4 3 3 3 3 3 2 2 2 1 -1 -2 -4 -4 -4 -5 -5 -6 -7 -7 -7 -7 -6 -6 -6 -6 -6 -6 -6 -6 -7 -7 -7 -7 -8 -8
5 4 4 3 3 3 3 3 2 2 2 2 2 1 1 1 0 -1 -3 -4 -4 -4 -5 -6 -6 -7 -7 -7 -7 -7 -6 -6 -6 -6 -7 -7 -7 -7 -7 -7 -7 -8 -9
4 3 3 3 2 2 1 1 1 1 1 1 1 1 0 0 -1 -2 -3 -4 -5 -5 -5 -6 -6 -7 -7 -7 -7 -7 -7 -6 -6 -6 -7 -7 -7 -7 -7 -8 -8 -9 -9
3 2 2 2 1 1 1 0 0 0 -0 -0 -0 -0 -0 -1 -2 -3 -4 -5 -5 -5 -6 -6 -6 -6 -6 -6 -6 -6 -6 -6 -6 -7 -7 -7 -7 -7 -7 -8 -8 -9 -10
2 1 1 1 0 -0 -0 -0 -0 -1 -1 -1 -1 -1 -1 -2 -2 -3 -4 -5 -5 -6 -6 -6 -6 -6 -6 -6 -6 -6 -6 -6 -7 -7 -7 -7 -7 -7 -7 -8 -9 -9 -10
1 0 0 -0 -1 -1 -1 -1 -1 -1 -1 -2 -2 -2 -2 -2 -3 -4 -5 -5 -5 -6 -6 -6 -6 -6 -6 -6 -6 -6 -6 -6 -7 -7 -7 -7 -7 -8 -8 -8 -9 -9 -10
-0 -0 -1 -1 -1 -1 -1 -2 -2 -2 -2 -2 -2 -2 -2 -3 -4 -4 -5 -5 -6 -6 -6 -6 -6 -6 -6 -6 -6 -6 -6 -7 -7 -7 -7 -7 -8 -8 -9 -9 -10 -10 -11
-1 -1 -1 -2 -2 -2 -2 -2 -2 -2 -2 -3 -3 -3 -3 -3 -4 -5 -6 -6 -6 -6 -6 -6 -6 -6 -6 -6 -6 -6 -6 -7 -7 -7 -8 -8 -8 -9 -9 -9 -10 -11 -11
-2 -2 -2 -2 -2 -2 -2 -2 -2 -2 -3 -3 -3 -3 -3 -4 -4 -5 -6 -6 -6 -6 -6 -6 -6 -6 -6 -6 -6 -6 -7 -7 -7 -8 -8 -9 -9 -10 -10 -10 -10 -11 -11
-3 -3 -3 -3 -3 -3 -3 -3 -3 -3 -3 -3 -3 -3 -4 -4 -4 -5 -6 -6 -6 -6 -6 -6 -6 -6 -6 -6 -6 -7 -7 -7 -8 -8 -9 -9 -9 -10 -10 -10 -11 -11 -11
-3 -3 -3 -3 -3 -3 -3 -3 -3 -3 -3 -3 -3 -3 -4 -4 -5 -5 -6 -6 -6 -6 -6 -6 -6 -6 -6 -6 -7 -7 -7 -8 -8 -8 -9 -9 -10 -10 -10 -11 -11 -11 -11
-4 -4 -4 -4 -4 -3 -3 -3 -3 -3 -3 -4 -4 -4 -4 -5 -5 -5 -6 -6 -6 -6 -6 -6 -6 -6 -6 -7 -7 -7 -7 -8 -8 -9 -9 -9 -10 -10 -10 -11 -11 -11 -11
-4 -4 -4 -4 -4 -4 -3 -3 -3 -3 -4 -4 -4 -4 -5 -5 -5 -6 -6 -6 -6 -6 -6 -6 -6 -6 -7 -7 -7 -7 -8 -8 -8 -9 -9 -9 -10 -10 -10 -11 -11 -11 -12
-5 -5 -4 -4 -4 -4 -3 -3 -4 -4 -4 -4 -5 -5 -5 -6 -6 -6 -6 -6 -6 -6 -6 -6 -6 -6 -7 -7 -7 -7 -8 -8 -9 -9 -9 -10 -10 -10 -10 -11 -11 -11 -12
-5 -5 -5 -4 -4 -4 -4 -4 -4 -4 -4 -5 -5 -5 -5 -6 -6 -6 -6 -6 -6 -6 -6 -6 -6 -7 -7 -7 -7 -7 -8 -8 -9 -9 -9 -10 -10 -10 -10 -11 -11 -11 -12
-5 -5 -5 -4 -4 -4 -4 -4 -4 -4 -5 -5 -5 -5 -6 -6 -6 -6 -6 -6 -6 -6 -6 -6 -6 -7 -7 -7 -7 -8 -8 -8 -9 -9 -9 -10 -10 -10 -11 -11 -11 -12 -12
-5 -5 -5 -5 -4 -4 -4 -4 -4 -5 -5 -5 -5 -6 -6 -6 -6 -6 -6 -7 -7 -6 -6 -6 -7 -7 -7 -7 -7 -8 -8 -8 -9 -9 -10 -10 -10 -10 -11 -11 -11 -11 -12
-5 -5 -5 -5 -5 -5 -4 -5 -5 -5 -5 -6 -6 -6 -6 -6 -7 -7 -7 -7 -7 -7 -7 -7 -7 -7 -7 -7 -8 -8 -8 -9 -9 -9 -10 -10 -10 -10 -11 -11 -11 -12 -12
-5 -5 -5 -5 -5 -5 -5 -5 -5 -5 -6 -6 -6 -6 -7 -7 -7 -7 -7 -7 -7 -7 -7 -7 -7 -7 -7 -7 -8 -8 -8 -9 -9 -10 -10 -10 -10 -10 -11 -11 -11 -12 -12
Wind_Speed
5 6 8 8 9 10 11 12 12 12 12 13 12 13 15 16 17 17 18 15 18 17 16 17 18 15 13 11 11 10 12 12 15 10 7 9 10 12 14 18 21 22 24
5 6 7 8 8 9 11 11 11 12 12 12 12 13 14 15 16 18 19 19 19 20 19 17 18 16 16 13 13 13 13 13 13 15 9 9 12 11 11 13 15 20 20
5 6 7 8 8 10 10 10 10 11 11 11 12 14 14 14 15 17 18 18 19 19 18 19 18 18 18 16 15 15 13 14 12 13 12 10 11 11 11 14 16 13 19
6 6 8 8 9 9 9 9 10 10 11 12 12 13 13 12 14 15 15 16 16 17 17 18 18 19 18 17 16 16 14 13 12 12 13 11 12 10 10 12 13 11 13
7 8 9 8 8 8 8 9 9 10 11 11 11 12 11 11 12 13 13 15 15 16 16 17 19 23 26 22 17 14 14 13 12 12 13 12 12 10 11 10 13 12 12
9 9 9 8 8 8 9 9 10 10 10 10 11 12 12 12 21 26 20 14 15 16 16 15 17 24 29 34 34 29 23 17 15 14 13 14 14 12 10 11 12 13 16
10 10 10 9 8 9 9 10 10 11 10 11 12 12 14 16 25 27 29 16 15 16 16 15 15 18 25 17 25 32 29 32 28 18 16 16 15 12 11 14 14 16 18
11 11 10 9 9 10 10 10 11 10 10 10 11 12 13 16 24 26 26 18 14 16 16 16 16 15 17 18 16 16 17 17 20 15 13 14 13 12 13 15 16 16 16
11 11 10 9 10 10 11 11 10 9 10 10 9 10 12 14 21 24 24 11 12 14 15 16 17 16 25 29 19 17 18 17 22 27 26 24 27 28 22 13 12 14 17
11 11 10 10 10 11 12 11 9 9 10 9 10 10 11 11 18 22 22 9 11 11 11 15 24 24 26 28 19 16 17 15 12 13 16 19 17 18 24 14 10 13 16
11 11 11 11 11 12 11 10 10 9 9 9 10 9 10 12 16 21 21 10 10 10 11 11 14 26 29 29 24 15 19 15 11 11 11 10 10 9 10 10 9 10 14
11 11 12 11 11 11 11 11 10 9 10 10 10 10 8 9 14 16 21 20 17 12 11 9 12 22 25 26 20 19 23 20 9 8 8 9 9 9 8 9 10 11 13
12 12 11 11 11 11 11 11 10 9 9 9 9 10 8 6 9 18 19 20 21 13 10 16 17 21 21 17 21 22 17 9 6 7 9 9 7 7 7 7 8 10 11
12 12 11 11 12 11 9 8 9 9 10 10 10 10 9 7 6 6 7 9 14 13 10 15 20 21 17 15 13 11 7 6 7 8 7 7 6 6 7 7 8 8 11
12 11 11 11 12 12 10 10 11 10 12 12 10 9 9 9 10 13 9 6 6 8 7 6 7 7 8 7 6 6 6 6 7 6 6 6 7 7 8 7 7 9 11
11 11 10 10 11 11 12 12 14 16 22 22 21 18 13 17 20 18 16 16 16 16 11 6 7 8 8 8 7 7 7 7 6 6 6 6 7 8 9 8 8 9 12
12 13 11 11 12 12 12 13 14 14 18 20 20 20 19 19 19 17 16 15 15 15 9 6 6 6 7 7 6 6 6 6 5 5 6 6 7 8 9 10 10 10 11
12 15 15 12 12 12 12 12 12 13 14 10 13 17 18 18 17 15 15 12 8 8 5 6 6 6 6 6 6 6 5 5 5 5 6 6 7 8 10 10 10 11 12
12 11 12 12 12 12 12 12 12 12 12 12 9 10 14 14 14 13 12 7 6 5 5 6 5 5 5 6 5 5 5 5 5 5 6 7 7 8 10 10 11 16 15
11 20 19 14 13 13 12 12 12 11 11 11 10 8 6 6 5 5 5 5 5 5 5 6 6 6 6 5 5 5 5 5 5 5 6 7 7 8 10 11 11 11 12
11 14 20 16 12 12 12 12 12 11 10 10 9 9 11 6 5 5 4 5 5 5 5 6 6 6 5 5 5 5 5 5 5 5 6 6 7 8 9 9 10 11 12
11 12 12 13 13 12 13 11 11 11 11 11 8 8 11 6 4 4 4 4 4 4 5 5 5 5 5 5 5 5 5 5 5 5 6 6 7 8 8 9 10 11 12
11 13 13 13 12 15 15 11 10 10 10 9 8 6 5 4 4 3 3 4 4 4 4 5 5 5 4 4 4 4 5 5 5 5 6 7 8 8 8 9 11 13 12
12 13 14 14 12 11 11 11 10 9 8 7 6 5 4 3 3 3 3 3 4 4 4 5 5 6 6 4 3 3 4 5 5 5 7 8 8 8 8 9 11 12 12
13 13 13 13 12 11 11 10 9 8 7 6 5 4 3 2 3 3 3 3 4 4 5 5 4 4 6 5 4 3 6 9 9 6 5 6 7 8 9 10 11 12 12
13 13 12 11 11 10 10 9 8 7 6 5 4 3 2 2 3 3 4 4 4 4 4 4 4 4 4 4 4 5 8 10 11 11 6 5 7 8 9 10 12 12 12
Wind_Direction
268 260 252 246 241 238 238 239 238 238 234 232 228 223 220 219 218 221 224 220 223 225 221 220 222 216 219 219 218 219 222 225 244 245 235 250 254 259 267 267 269 268 269
256 258 261 259 251 245 245 245 241 240 237 235 232 230 228 223 219 220 224 223 223 224 222 220 221 218 219 218 219 221 225 226 236 250 249 250 253 256 258 262 269 269 266
269 260 263 262 258 253 251 248 244 242 242 237 233 234 232 226 222 222 223 224 225 224 221 220 220 216 219 219 220 222 227 231 233 245 253 251 257 259 261 266 265 265 268
293 278 271 266 263 263 262 257 251 245 243 241 238 237 234 228 226 226 224 224 224 224 221 221 219 217 218 218 221 223 226 230 233 241 251 255 258 256 255 264 269 263 266
305 295 284 276 273 274 274 272 267 259 253 247 244 242 236 231 231 228 226 226 225 224 223 222 221 221 221 221 223 223 223 228 232 240 248 254 257 256 255 258 268 273 268
305 295 289 285 280 277 274 272 270 265 258 251 246 245 243 240 246 245 239 230 228 227 227 225 224 230 231 231 231 228 223 223 228 234 242 248 253 253 257 261 270 278 281
304 297 292 286 281 277 275 273 269 264 257 252 247 244 245 247 252 253 249 237 226 228 228 226 228 228 230 231 238 240 237 234 231 230 240 247 254 255 259 268 268 270 275
303 299 297 293 288 284 279 275 272 267 262 257 251 246 246 250 255 257 255 247 231 226 225 224 225 225 226 225 227 233 240 245 246 244 244 251 256 260 259 264 271 275 275
302 299 299 297 294 291 286 281 277 273 271 265 259 251 250 254 258 260 257 243 236 230 224 222 222 224 229 230 227 227 234 240 247 249 251 255 258 264 267 271 272 280 284
300 301 302 301 298 292 287 285 283 278 275 273 267 258 255 254 259 262 259 242 239 237 229 224 226 225 228 231 228 224 230 235 233 244 253 261 265 269 273 268 266 274 281
300 303 302 298 294 292 289 285 284 281 280 278 275 268 260 259 266 264 261 242 234 237 235 226 222 229 231 231 230 226 233 235 231 238 246 250 253 253 253 249 244 252 269
302 301 299 296 296 297 292 289 285 284 284 283 281 278 267 264 268 266 263 258 248 235 234 226 220 227 232 234 234 234 238 244 236 234 246 254 256 256 252 248 246 246 252
302 300 299 298 298 296 293 292 291 287 283 283 281 283 279 263 262 267 266 263 259 247 232 227 224 228 229 233 237 238 241 238 228 240 251 256 252 253 256 261 261 259 263
303 302 301 302 301 296 290 287 288 287 284 283 283 283 281 274 260 249 248 262 264 260 249 235 229 227 223 221 228 240 234 226 227 239 250 256 258 263 267 267 274 279 284
302 301 301 298 298 297 291 287 286 278 280 286 280 274 280 280 271 268 257 239 234 241 237 220 213 214 213 206 205 214 218 228 243 237 247 260 268 272 275 272 273 282 286
305 303 301 299 298 295 295 293 283 282 290 290 286 281 276 275 279 276 273 268 257 245 237 221 211 208 208 206 208 213 216 221 228 237 247 257 268 274 280 281 279 281 285
302 301 300 297 297 296 295 296 298 297 291 289 288 287 284 282 280 274 270 266 259 249 233 210 202 201 204 204 205 207 213 219 221 233 246 256 265 272 278 283 284 284 286
297 299 299 295 294 294 293 293 293 296 299 294 289 287 287 287 282 271 266 260 252 239 215 200 196 198 199 198 201 205 212 219 224 234 245 255 261 271 278 280 283 285 290
297 297 294 292 291 290 290 290 290 290 292 293 291 286 286 286 282 271 263 242 229 219 202 191 190 194 194 192 195 200 208 220 230 238 249 256 261 269 276 279 284 290 295
296 298 300 296 294 292 291 292 293 293 293 292 291 287 281 273 260 258 246 220 211 203 192 188 189 188 184 186 191 198 211 226 236 244 253 259 265 271 277 282 287 291 292
296 297 299 297 293 293 294 294 294 294 293 291 286 281 281 267 252 239 226 208 196 190 186 183 181 180 181 183 190 202 216 233 240 248 258 265 271 277 281 284 287 290 292
295 295 295 295 296 296 296 293 292 291 289 288 287 285 285 272 248 232 216 199 185 181 181 176 176 180 182 185 192 205 222 236 246 253 261 270 275 280 284 287 290 293 295
296 297 298 297 296 297 298 294 292 291 288 284 283 278 270 250 236 223 210 187 176 172 170 168 169 174 178 181 188 199 220 239 248 255 268 277 281 284 289 292 293 296 297
297 298 298 297 296 294 295 296 294 291 288 286 282 275 264 241 219 203 185 169 167 164 159 160 165 174 175 179 195 210 226 245 255 259 265 276 283 289 292 293 295 296 298
299 298 297 296 296 296 297 296 295 292 289 286 280 272 254 217 192 177 164 154 152 155 157 156 160 169 181 192 205 229 258 271 279 281 269 276 283 287 292 294 296 299 299
300 299 298 296 296 296 297 298 297 293 289 284 275 260 222 190 176 166 157 151 150 152 154 155 161 168 180 196 221 252 273 283 289 294 296 282 288 294 298 299 301 303 302
Height
1449 1446 1443 1440 1437 1434 1431 1428 1426 1424 1423 1422 1421 1420 1418 1416 1415 1415 1413 1413 1413 1413 1413 1414 1414 1417 1418 1420 1422 1423 1423 1422 1418 1416 1420 1422 1422 1421 1419 1418 1416 1413 1411
1445 1442 1438 1435 1432 1428 1425 1422 1419 1416 1414 1412 1411 1409 1408 1406 1405 1403 1402 1401 1401 1400 1401 1402 1403 1406 1407 1410 1411 1412 1412 1413 1411 1408 1410 1412 1411 1411 1408 1407 1405 1403 1400
1441 1437 1433 1429 1425 1422 1418 1415 1411 1408 1406 1403 1401 1399 1397 1396 1395 1393 1391 1391 1390 1389 1390 1391 1392 1395 1395 1398 1400 1401 1403 1404 1403 1401 1399 1401 1401 1400 1398 1396 1394 1392 1390
1436 1432 1427 1423 1419 1415 1411 1407 1404 1400 1397 1394 1392 1390 1388 1386 1384 1383 1381 1380 1379 1379 1379 1380 1381 1383 1384 1388 1390 1391 1393 1394 1394 1393 1391 1391 1390 1390 1389 1386 1383 1382 1379
1430 1426 1421 1417 1412 1408 1404 1400 1396 1392 1389 1386 1383 1380 1378 1376 1374 1372 1371 1370 1368 1368 1368 1369 1370 1372 1374 1377 1379 1381 1383 1384 1384 1384 1382 1382 1380 1380 1379 1378 1375 1371 1367
1424 1419 1414 1410 1405 1401 1396 1392 1388 1384 1380 1377 1373 1371 1368 1365 1364 1362 1360 1357 1357 1356 1356 1357 1359 1362 1364 1368 1370 1371 1373 1373 1374 1374 1373 1372 1370 1371 1370 1369 1366 1362 1355
1418 1413 1408 1403 1398 1393 1389 1384 1379 1375 1371 1367 1364 1361 1358 1356 1354 1352 1350 1348 1345 1344 1345 1346 1348 1350 1354 1357 1360 1363 1364 1365 1365 1366 1364 1363 1362 1362 1362 1359 1356 1352 1346
1412 1407 1402 1397 1391 1386 1381 1376 1371 1367 1363 1359 1355 1352 1348 1346 1345 1342 1341 1340 1337 1335 1335 1336 1338 1340 1343 1346 1349 1351 1353 1355 1357 1357 1356 1355 1355 1354 1353 1350 1347 1341 1335
1406 1401 1396 1390 1384 1379 1374 1369 1364 1360 1355 1351 1348 1344 1340 1337 1336 1334 1332 1330 1328 1326 1325 1326 1328 1330 1333 1338 1341 1341 1343 1344 1347 1348 1348 1347 1346 1346 1345 1343 1338 1333 1325
1400 1394 1389 1383 1378 1372 1367 1362 1357 1353 1348 1344 1339 1336 1332 1329 1327 1325 1324 1321 1319 1318 1318 1318 1319 1321 1324 1329 1332 1333 1334 1335 1338 1338 1338 1338 1337 1336 1335 1334 1330 1325 1318
1393 1387 1382 1376 1371 1365 1360 1355 1350 1345 1341 1336 1332 1328 1325 1321 1318 1316 1315 1313 1310 1310 1310 1309 1311 1314 1317 1320 1323 1325 1326 1329 1330 1330 1329 1328 1327 1326 1324 1322 1320 1317 1310
1386 1380 1374 1369 1364 1358 1353 1348 1343 1339 1333 1328 1324 1319 1316 1314 1311 1308 1306 1305 1304 1302 1302 1303 1304 1308 1311 1314 1316 1318 1320 1322 1323 1322 1321 1319 1318 1316 1314 1312 1309 1306 1301
1378 1372 1367 1361 1356 1352 1347 1341 1336 1332 1327 1321 1317 1311 1308 1305 1303 1301 1299 1297 1296 1296 1295 1296 1299 1301 1304 1307 1310 1312 1314 1315 1315 1314 1313 1311 1310 1308 1305 1302 1299 1295 1290
1371 1365 1360 1354 1349 1344 1340 1335 1330 1325 1320 1315 1310 1305 1301 1298 1295 1293 1291 1290 1289 1288 1289 1290 1293 1296 1298 1301 1303 1305 1307 1307 1307 1307 1305 1304 1302 1300 1297 1294 1290 1285 1279
1364 1358 1353 1347 1342 1337 1332 1329 1324 1319 1315 1310 1304 1300 1295 1290 1288 1287 1285 1282 1281 1281 1283 1284 1287 1290 1292 1294 1296 1298 1300 1301 1301 1300 1299 1297 1294 1292 1288 1286 1282 1277 1271
1357 1351 1346 1340 1335 1330 1325 1320 1316 1313 1307 1303 1299 1294 1289 1286 1282 1280 1279 1278 1277 1277 1279 1279 1281 1284 1286 1288 1290 1292 1293 1294 1294 1293 1292 1290 1288 1285 1281 1278 1274 1269 1264
1351 1345 1339 1334 1329 1323 1318 1313 1307 1303 1300 1296 1291 1287 1283 1279 1276 1274 1273 1272 1272 1273 1274 1275 1277 1279 1281 1283 1285 1286 1287 1288 1288 1287 1286 1284 1281 1278 1275 1271 1267 1262 1256
1344 1338 1333 1327 1322 1317 1312 1307 1302 1296 1290 1286 1283 1280 1276 1272 1270 1268 1267 1267 1266 1267 1269 1270 1272 1275 1277 1278 1280 1281 1282 1282 1282 1281 1279 1277 1275 1272 1268 1264 1260 1255 1250
1337 1331 1325 1320 1316 1311 1306 1301 1296 1290 1285 1279 1275 1272 1269 1266 1264 1262 1261 1261 1261 1263 1264 1266 1268 1271 1272 1274 1275 1276 1277 1277 1276 1275 1273 1271 1269 1266 1262 1258 1254 1249 1244
1329 1324 1319 1314 1309 1304 1299 1294 1289 1284 1279 1274 1269 1266 1263 1260 1258 1257 1256 1256 1257 1259 1260 1262 1265 1267 1268 1270 1271 1271 1271 1271 1271 1270 1268 1266 1263 1260 1256 1252 1247 1242 1237
1321 1316 1311 1307 1302 1297 1292 1287 1282 1277 1272 1268 1264 1260 1258 1255 1253 1252 1252 1253 1254 1255 1257 1259 1261 1263 1264 1266 1266 1267 1266 1266 1265 1264 1262 1260 1258 1254 1251 1246 1241 1236 1230
1314 1309 1305 1300 1295 1290 1285 1280 1276 1271 1266 1262 1258 1255 1253 1251 1249 1249 1249 1249 1251 1252 1254 1256 1258 1259 1261 1262 1262 1262 1262 1261 1261 1259 1257 1255 1252 1249 1245 1240 1235 1229 1224
1308 1303 1298 1293 1288 1283 1279 1274 1269 1265 1260 1256 1253 1250 1248 1246 1246 1245 1246 1247 1248 1250 1252 1253 1255 1256 1257 1258 1258 1258 1258 1257 1256 1255 1252 1250 1247 1243 1239 1234 1229 1223 1218
1301 1296 1291 1286 1281 1277 1272 1268 1263 1259 1255 1252 1248 1246 1244 1243 1243 1243 1243 1245 1246 1248 1250 1251 1252 1253 1254 1255 1255 1254 1254 1253 1252 1250 1248 1245 1242 1238 1234 1228 1223 1218 1213
1295 1290 1285 1280 1275 1271 1266 1262 1258 1254 1250 1247 1244 1242 1241 1240 1240 1241 1242 1243 1244 1246 1248 1249 1250 1251 1252 1252 1252 1251 1251 1250 1248 1246 1244 1241 1237 1233 1228 1223 1218 1212 1207
1288 1283 1278 1274 1269 1265 1261 1257 1253 1249 1246 1243 1241 1239 1238 1238 1238 1239 1240 1241 1243 1245 1246 1247 1248 1249 1249 1249 1249 1248 1248 1246 1245 1243 1240 1237 1233 1229 1224 1218 1213 1208 1202